SUPERBIRD 8 (43271 NORAD) Tracking and Keplerian Element Data

This shows tracking and keplerian element data for the satellite.

Feedback or suggestion? Click here.




ElementValue
Catalog43271
NameSUPERBIRD 8
Epoch Orbit106
Epoch Day197.73186398
Epoch Year2018
RAAN334.64
Inclination0.0167
Eccentricity0.0001941
Argument of Perigee275.9709
Mean Anonmoly109.3504
Mean Motion1.00271379
Decay Rate-1.13E-06
L11 43271U 18033A 18197.73186398 -.00000113 00000-0 00000-0 0 9999
L22 43271 0.0167 334.6400 0001941 275.9709 109.3504 1.00271379 1066

Live tracking and technical data element details for SUPERBIRD 8 (NORAD 43271). SUPERBIRD 8 can be tracked NOW for your location showing map with azimuth and elevation plus other details from your city location.

Track the satellite on the map from your city or location and see movement details for azimuth, elevation, latitude, longitude, range, height, and movement on the map or in text.







IsCatalogInMostPopularTable: catalog: 43271, numindb: 63
Update: records affected: 1



GetName: 43271 SUPERBIRD 8

Hit Count: updated at: Thu, 19 Jul 2018 03:57:27 GMT